| time (UTC) | temp F | wind direction | speed knots | gust knots | rain 1hr in | rain 24hr in | rain mn in | humidity % | barometer mb |
| 20260504223051 | 67 | 192 | 2.6 | 7.8 | 0.00 | 0.00 | 0.00 | 67 | 1012.0 |
| 20260504221555 | 67 | 180 | 4.3 | 9.6 | 0.00 | 0.00 | 0.00 | 68 | 1012.1 |
| 20260504220058 | 66 | 186 | 6.1 | 9.6 | 0.00 | 0.00 | 0.00 | 68 | 1012.2 |
| 20260504214555 | 66 | 226 | 6.1 | 11.3 | 0.00 | 0.00 | 0.00 | 68 | 1012.3 |
| 20260504213112 | 65 | 175 | 3.5 | 7.8 | 0.00 | 0.00 | 0.00 | 69 | 1012.6 |
| 20260504211549 | 64 | 200 | 5.2 | 11.3 | 0.00 | 0.00 | 0.00 | 73 | 1012.8 |
| 20260504210053 | 63 | 228 | 4.3 | 9.6 | 0.00 | 0.00 | 0.00 | 71 | 1013.1 |
| 20260504204557 | 63 | 206 | 1.7 | 10.4 | 0.00 | 0.00 | 0.00 | 73 | 1013.3 |
| 20260504203112 | 62 | 150 | 4.3 | 8.7 | 0.00 | 0.00 | 0.00 | 71 | 1013.3 |
| 20260504201551 | 61 | 239 | 4.3 | 9.6 | 0.00 | 0.00 | 0.00 | 73 | 1013.5 |
| 20260504200053 | 61 | 200 | 2.6 | 7.8 | 0.00 | 0.00 | 0.00 | 74 | 1013.5 |
| 20260504194601 | 60 | 133 | 3.5 | 8.7 | 0.00 | 0.00 | 0.00 | 79 | 1013.6 |
| 20260504193100 | 59 | 223 | 4.3 | 12.2 | 0.00 | 0.00 | 0.00 | 76 | 1013.5 |
| 20260504191552 | 59 | 230 | 4.3 | 10.4 | 0.00 | 0.00 | 0.00 | 77 | 1013.6 |
| 20260504190114 | 59 | 190 | 3.5 | 9.6 | 0.00 | 0.00 | 0.00 | 79 | 1013.7 |
| 20260504184559 | 57 | 188 | 3.5 | 10.4 | 0.00 | 0.00 | 0.00 | 80 | 1013.9 |
| 20260504183049 | 57 | 227 | 4.3 | 8.7 | 0.00 | 0.00 | 0.00 | 81 | 1013.8 |
| 20260504181550 | 56 | 164 | 4.3 | 9.6 | 0.00 | 0.00 | 0.00 | 82 | 1013.8 |
| 20260504180053 | 56 | 227 | 3.5 | 7.8 | 0.00 | 0.00 | 0.00 | 82 | 1013.7 |
| 20260504174601 | 56 | 172 | 4.3 | 7.8 | 0.00 | 0.00 | 0.00 | 84 | 1013.7 |
| 20260504173054 | 55 | 222 | 2.6 | 9.6 | 0.00 | 0.00 | 0.00 | 83 | 1013.7 |
| 20260504171551 | 54 | 194 | 4.3 | 12.2 | 0.00 | 0.00 | 0.00 | 84 | 1013.7 |
| 20260504140107 | 51 | 206 | 6.1 | 13.0 | 0.00 | 0.00 | 0.00 | 88 | 1012.1 |
| 20260504110117 | 55 | 186 | 7.0 | 13.0 | 0.00 | 0.00 | 0.00 | 79 | 1010.2 |
| 20260504100106 | 59 | 201 | 5.2 | 9.6 | 0.00 | 0.00 | 0.00 | 71 | 1009.7 |
| 20260504090115 | 64 | 196 | 0.9 | 1.7 | 0.00 | 0.00 | 0.00 | 58 | 1009.3 |
| 20260504081554 | 66 | 339 | 0.9 | 4.3 | 0.00 | 0.00 | 0.00 | 53 | 1009.2 |
| 20260504044600 | 73 | 329 | 3.5 | 7.8 | 0.00 | 0.00 | 0.00 | 43 | 1008.5 |
| 20260504043054 | 73 | 360 | 3.5 | 7.0 | 0.00 | 0.00 | 0.00 | 44 | 1008.3 |
| 20260504041554 | 74 | 67 | 3.5 | 7.8 | 0.00 | 0.00 | 0.00 | 43 | 1008.2 |
| 20260504040050 | 74 | 9 | 1.7 | 7.8 | 0.00 | 0.00 | 0.00 | 46 | 1008.1 |
| 20260504034603 | 75 | 333 | 2.6 | 5.2 | 0.00 | 0.00 | 0.00 | 44 | 1008.0 |
| 20260504033056 | 76 | 319 | 2.6 | 7.0 | 0.00 | 0.00 | 0.00 | 42 | 1007.8 |
| 20260504031550 | 76 | 344 | 3.5 | 7.0 | 0.00 | 0.00 | 0.00 | 40 | 1007.8 |
| 20260504030049 | 77 | 344 | 3.5 | 7.8 | 0.00 | 0.00 | 0.00 | 38 | 1007.9 |
| 20260504024548 | 78 | 339 | 1.7 | 7.0 | 0.00 | 0.00 | 0.00 | 38 | 1007.9 |
| 20260504023048 | 78 | 360 | 3.5 | 9.6 | 0.00 | 0.00 | 0.00 | 36 | 1007.8 |
| 20260504021544 | 78 | 346 | 2.6 | 7.0 | 0.00 | 0.00 | 0.00 | 38 | 1007.7 |
| 20260504020047 | 79 | 334 | 1.7 | 7.0 | 0.00 | 0.00 | 0.00 | 37 | 1007.7 |
| 20260504014551 | 79 | 340 | 2.6 | 7.0 | 0.00 | 0.00 | 0.00 | 38 | 1007.8 |
| 20260504013051 | 81 | 10 | 2.6 | 7.8 | 0.00 | 0.00 | 0.00 | 33 | 1007.8 |
| 20260504011552 | 81 | 360 | 5.2 | 9.6 | 0.00 | 0.00 | 0.00 | 32 | 1008.0 |
| 20260504010056 | 82 | 360 | 2.6 | 7.0 | 0.00 | 0.00 | 0.00 | 32 | 1008.2 |
| 20260504004550 | 83 | 44 | 2.6 | 7.8 | 0.00 | 0.00 | 0.00 | 31 | 1008.3 |
| 20260504003053 | 83 | 37 | 3.5 | 7.0 | 0.00 | 0.00 | 0.00 | 31 | 1008.4 |
| 20260504001611 | 84 | 38 | 1.7 | 8.7 | 0.00 | 0.00 | 0.00 | 31 | 1008.3 |
| 20260504000049 | 84 | 5 | 2.6 | 11.3 | 0.00 | 0.00 | 0.00 | 30 | 1008.3 |
| 20260503234549 | 84 | 26 | 3.5 | 8.7 | 0.00 | 0.00 | 0.00 | 32 | 1008.4 |
| 20260503233057 | 85 | 5 | 4.3 | 10.4 | 0.00 | 0.00 | 0.00 | 30 | 1008.7 |
| 20260503231555 | 85 | 344 | 2.6 | 7.8 | 0.00 | 0.00 | 0.00 | 31 | 1008.7 |
| 20260503230054 | 85 | 348 | 0.9 | 5.2 | 0.00 | 0.00 | 0.00 | 33 | 1009.0 |
| 20260503224553 | 85 | 15 | 2.6 | 7.0 | 0.00 | 0.00 | 0.00 | 29 | 1009.2 |